sat.trackr.live / text

‹ back to catalog

STARLINK-33953

NORAD 64028 · 2025-102G

PAYLOAD ACTIVE UNKNOWN

§ Identity

Operator
Country
US
Launch date
2025-05-16
Launch site
AFWTR
Launch vehicle
Mass (kg)
RCS (m²)

Purposes: comms

External: N2YO · Heavens-Above · Gunter

§ Orbital elements

Epoch: 2026-09-20T22:03:00.088128Z

Period
94.14 min
Inclination
70.0003°
Eccentricity
0.0003311
Mean motion
15.29597134 rev/d
Perigee alt
474.7 km
Apogee alt
479.3 km
Semi-major
6,855.2 km
B*
5.4766e-4
RAAN
339.8941°
Arg perigee
272.1083°
Mean anomaly
87.9713°
Rev number
7,535

§ Raw data

STARLINK-339531 64028U 25102G   26263.91875102  .00015657  00000+0  54766-3 0  99962 64028  70.0003 339.8941 0003311 272.1083  87.9713 15.29597134 75351

JSON: /api/v1/satellites/64028 · /tle

For live sub-satellite position, see the globe view (requires WebGL).

§ Visibility from observer

Set your observer location to see the next 7 days of passes ≥ 10°. The values pass through the URL so the page stays shareable.

No JS? Fill the form by hand. The geolocation button needs JavaScript.